Location: Igon
(43.1667°N, 0.2333°W)
Time: 21:05:06
(UTC+00:00)

Atlas Centaur 2 - Pass Details

Date: 29 November 2020
Orbit: 459 x 1309 km, 30.4° (Epoch: 21 January)

Event Time Altitude Azimuth Distance (km) Brightness Sun altitude
Exits shadow 04:27:14 22° 189° (S) 1,985 4.0 -29.3°
Maximum altitude 04:28:20 23° 175° (S) 1,893 4.0 -29.1°
Drops below altitude 10° 04:32:49 10° 125° (SE) 2,424 5.3 -28.3°
Sets 04:35:34 0° 110° (ESE) 3,204 6.4 -27.8°
